N410HA -KFLG

Flight info

Callsign N410HA
Flight time N/A
Altitude VFR
Route
Aircraft C280/L-VGD/C

Departure

Time N/A
Airport -

Arrival

Time 2026-04-25 22:19
Airport Flagstaff Pulliam Airport (KFLG)
Time Latitude Longitude Altitude Speed Heading
2026-04-25 22:13 35.04635 -111.67622 9569 ft 169 kts 14°
2026-04-25 22:13 35.05752 -111.67195 9366 ft 165 kts
2026-04-25 22:14 35.06872 -111.67010 9155 ft 158 kts 355°
2026-04-25 22:14 35.07901 -111.66569 8961 ft 160 kts 34°
2026-04-25 22:14 35.08761 -111.65714 8754 ft 158 kts 40°
2026-04-25 22:14 35.09539 -111.64898 8791 ft 136 kts 40°
2026-04-25 22:15 35.10223 -111.64150 8785 ft 132 kts 37°
2026-04-25 22:15 35.10993 -111.63361 8708 ft 166 kts 39°
2026-04-25 22:15 35.11979 -111.62495 8756 ft 179 kts 32°
2026-04-25 22:16 35.13970 -111.60600 8775 ft 169 kts 39°
2026-04-25 22:16 35.14940 -111.60088 8781 ft 143 kts 351°
2026-04-25 22:16 35.15816 -111.60468 8579 ft 133 kts 311°
2026-04-25 22:16 35.16535 -111.61160 8367 ft 130 kts 305°
2026-04-25 22:17 35.17050 -111.61897 8233 ft 96 kts 275°
2026-04-25 22:17 35.17137 -111.62613 8093 ft 78 kts 265°
2026-04-25 22:17 35.17078 -111.63213 7916 ft 73 kts 242°
2026-04-25 22:17 35.16867 -111.63823 7806 ft 79 kts 239°
2026-04-25 22:18 35.16486 -111.64314 7678 ft 77 kts 221°
2026-04-25 22:18 35.16097 -111.64682 7541 ft 75 kts 219°
2026-04-25 22:18 35.15694 -111.65160 7463 ft 84 kts 220°
2026-04-25 22:18 35.15256 -111.65626 7354 ft 80 kts 224°
2026-04-25 22:19 35.14831 -111.66067 7172 ft 79 kts 226°
2026-04-25 22:19 35.14558 -111.66360 7071 ft 79 kts 223°
2026-04-25 22:19 35.14055 -111.66893 6998 ft 59 kts 227°
2026-04-25 22:19 35.13862 -111.67122 6999 ft 10 kts 278°
2026-04-25 22:20 35.13920 -111.67153 6999 ft 12 kts 315°
2026-04-25 22:20 35.13987 -111.67242 6999 ft 14 kts 311°
2026-04-25 22:20 35.14011 -111.67258 6998 ft 0 kts 88°
2026-04-25 22:20 35.14009 -111.67249 6998 ft 0 kts 119°